Theta_e
321 321 320 320 319 318 318 318 318 318 317 317 317 317 317 316 316 316 316 316 316 317 317 317 317 318 320 314 313 327 332 331 319 319 316 313 310 310 307 309 310 308 310 312 312 312 312
321 321 320 319 319 318 317 318 318 317 317 317 317 317 317 315 315 315 315 315 316 316 316 316 317 318 315 307 317 326 323 320 317 317 313 314 311 313 310 309 308 311 310 310 311 311 312
321 319 319 318 318 317 317 317 318 318 317 317 317 316 316 316 316 315 315 316 315 317 316 317 318 321 313 311 320 322 323 319 318 316 312 315 316 311 311 307 311 310 306 309 309 310 310
320 319 318 318 318 317 317 317 317 316 317 317 316 316 316 315 316 315 315 315 316 319 317 317 319 319 311 319 321 319 321 319 319 318 318 318 317 312 310 313 309 307 307 303 309 310 310
318 318 318 319 318 317 316 316 316 316 316 316 316 315 315 315 315 315 315 314 321 318 318 319 321 319 311 315 314 318 321 314 315 317 317 315 314 310 310 306 305 306 300 303 305 310 309
319 320 318 319 318 317 317 316 315 316 316 316 316 315 314 314 315 315 314 314 321 320 323 324 321 313 316 312 318 316 319 318 314 314 312 310 309 306 306 305 298 301 303 304 304 308 307
319 319 319 318 317 315 316 316 315 315 316 316 316 314 314 314 314 314 313 323 317 319 317 309 310 310 311 315 319 316 316 316 314 311 304 309 303 301 304 307 307 306 304 303 306 308 305
318 318 318 317 317 315 315 315 315 315 315 315 315 314 314 313 313 314 315 313 312 313 307 312 311 312 313 314 309 313 318 309 309 305 308 307 302 307 309 307 306 304 302 302 305 308 306
317 318 317 317 317 315 315 314 314 314 314 314 314 313 313 312 312 314 317 315 318 317 308 309 310 310 311 313 308 309 314 312 307 305 306 304 307 309 306 305 303 304 302 302 302 306 306
317 318 318 317 316 316 315 314 314 314 314 313 313 312 312 311 312 319 316 320 319 318 304 304 306 309 311 312 307 313 315 312 309 305 306 306 309 307 304 303 305 300 306 304 302 302 298
317 317 317 316 316 315 314 313 313 313 313 312 312 312 311 309 319 316 317 321 318 316 296 304 306 314 312 308 309 310 314 311 306 307 308 304 306 305 304 304 306 302 307 305 303 302 302
317 317 316 316 316 314 313 312 312 312 312 312 312 311 310 316 321 318 320 321 317 303 293 301 305 304 306 307 307 310 309 312 312 307 308 307 311 309 307 308 307 307 305 304 304 302 296
316 316 315 314 315 313 312 311 311 311 311 311 311 310 310 318 314 318 319 316 302 297 303 299 299 303 303 302 304 305 304 305 303 300 300 305 305 308 306 303 307 305 302 295 294 294 293
316 315 315 314 314 313 312 310 310 310 310 310 308 307 315 319 319 318 316 309 297 299 298 302 301 302 299 302 303 303 303 301 305 303 301 298 296 304 306 303 302 303 302 295 289 291 295
316 315 314 313 313 312 311 310 309 309 310 308 306 320 320 318 317 319 311 302 299 299 300 299 300 298 299 300 300 302 302 301 303 304 299 299 297 305 303 304 304 300 297 303 297 300 296
315 314 313 312 311 311 311 310 309 309 310 307 312 316 320 317 320 317 308 296 300 301 301 301 296 298 296 298 298 300 299 303 301 303 307 304 296 302 302 303 304 302 304 297 297 288 287
314 312 311 310 310 310 310 310 309 310 308 306 313 310 316 318 320 312 302 302 300 303 302 299 298 297 298 297 297 297 298 301 302 302 305 304 301 299 302 299 299 300 298 301 300 297 291
311 310 310 310 310 309 309 309 309 309 306 309 314 305 315 318 308 309 303 300 296 301 303 301 301 300 298 298 297 298 297 300 302 302 298 303 301 296 298 304 306 303 301 299 294 294 297
310 309 309 310 309 309 309 309 309 309 307 308 308 309 317 315 302 303 303 300 301 300 300 300 299 300 301 298 294 297 298 301 300 300 300 302 298 292 295 300 303 299 301 302 300 299 295
309 309 310 310 309 309 309 309 309 309 308 308 309 304 309 313 309 303 300 300 299 302 300 300 300 300 299 298 301 297 297 300 300 300 299 301 297 295 291 291 297 294 295 298 298 292 294
309 309 309 310 309 309 309 309 309 309 308 309 311 306 305 302 304 302 302 301 297 297 301 301 300 299 298 296 297 297 299 299 301 303 300 300 293 296 296 297 295 294 294 295 294 296 292
309 309 309 309 309 309 308 309 309 309 306 311 304 304 310 304 303 302 297 300 297 298 298 298 297 299 299 297 298 296 298 298 297 301 300 301 294 296 292 296 295 292 294 295 295 294 294
309 309 309 310 309 309 308 309 310 309 306 310 312 311 305 301 302 300 302 300 298 299 301 300 299 298 297 299 302 302 302 302 301 299 297 297 295 293 289 294 293 289 294 294 295 296 295
309 309 309 309 310 310 309 309 311 308 306 310 310 308 304 300 303 300 299 299 298 299 298 301 301 299 302 305 304 303 302 301 300 299 301 295 295 294 290 292 282 293 298 296 293 295 298
309 309 309 309 309 310 310 310 310 308 307 309 312 308 305 300 302 300 299 299 300 300 299 299 301 303 306 302 296 295 295 296 296 298 297 299 295 291 288 287 291 293 295 294 293 293 298
309 309 309 309 309 309 310 311 312 307 306 308 312 311 306 301 301 301 299 300 298 299 299 299 302 305 303 298 295 288 288 291 290 292 297 297 299 292 290 284 281 293 297 300 299 290 301
309 308 309 309 309 309 310 311 310 307 306 308 308 314 305 299 304 303 300 300 302 299 298 300 299 299 302 295 291 290 289 294 288 289 290 291 291 289 288 287 291 297 299 300 288 294 302
308 308 308 309 309 309 310 310 311 307 307 307 307 313 305 299 303 304 304 301 301 300 297 299 297 298 296 292 291 291 292 295 292 294 292 290 289 288 290 287 284 301 299 293 301 304 303
308 308 308 308 308 309 310 310 311 307 307 305 303 313 311 301 302 308 307 308 306 303 300 300 298 298 299 294 295 295 291 294 292 289 298 291 295 294 294 294 301 304 303 306 306 304 303
Wind_Speed
18 18 19 19 19 20 18 19 20 19 21 21 21 24 23 23 22 21 20 19 18 17 15 13 11 9 9 10 13 12 10 8 13 16 17 15 16 16 17 15 15 17 16 12 11 13 12
17 17 18 19 18 19 19 19 19 20 20 21 22 23 24 24 22 21 20 19 17 16 14 11 9 7 10 16 6 9 11 12 15 17 15 15 12 14 17 15 15 13 14 19 10 14 14
17 18 19 19 18 21 21 20 19 21 21 22 23 23 24 23 22 21 19 17 16 15 11 11 10 8 12 15 4 3 11 14 13 15 14 15 13 10 9 17 15 14 17 16 16 14 15
17 18 20 20 20 21 21 22 22 23 23 23 24 24 24 24 22 20 17 15 15 8 6 10 9 10 9 6 6 7 10 13 10 11 11 7 9 14 19 15 8 14 17 17 18 19 15
19 19 19 18 20 22 22 23 24 23 24 25 25 25 24 24 22 18 13 13 7 2 6 9 10 10 8 4 7 10 10 11 10 9 8 5 11 15 16 16 14 16 15 20 15 6 10
17 16 19 20 19 20 20 22 24 24 25 26 27 26 25 24 21 16 10 9 1 6 8 9 8 8 7 3 5 3 10 11 12 11 12 13 11 15 16 14 16 17 19 17 12 16 13
17 19 19 19 21 23 21 22 25 24 24 27 28 26 25 24 22 15 10 7 6 8 11 9 7 8 4 4 8 7 10 11 13 13 16 16 14 17 20 20 21 22 14 14 10 10 7
16 16 17 20 22 23 23 23 23 23 25 27 28 28 26 24 23 18 10 10 7 7 9 1 2 4 0 4 6 12 15 13 16 17 19 17 17 19 17 18 15 18 14 17 15 11 9
14 15 16 20 18 22 25 23 24 24 25 26 27 28 29 24 23 9 5 11 7 3 9 7 2 3 3 4 2 7 12 16 15 19 20 20 17 14 21 14 15 16 18 16 16 11 10
15 15 17 18 18 20 22 24 25 25 26 26 26 28 28 30 6 8 6 12 7 0 8 5 4 5 2 2 7 1 6 17 19 21 20 21 20 14 13 17 16 18 17 16 16 14 13
15 16 17 18 18 20 22 25 25 26 26 27 27 26 27 10 11 7 10 10 7 5 6 5 4 6 2 7 8 10 4 12 21 19 16 20 22 20 19 16 17 15 17 12 16 18 16
16 17 18 18 19 20 21 25 25 26 27 28 29 28 24 4 11 9 11 9 6 10 3 4 2 7 9 2 1 5 6 8 10 19 23 21 19 15 15 17 13 10 13 17 13 15 17
16 17 19 20 18 20 21 25 26 26 27 29 31 29 15 8 7 13 10 8 9 6 4 5 5 8 12 4 7 6 5 11 12 12 18 21 21 12 4 12 12 13 14 11 15 15 17
15 16 18 19 19 20 21 25 25 27 27 29 33 29 6 8 10 10 8 10 7 7 4 3 7 11 7 8 8 6 10 13 10 12 16 15 17 20 14 17 18 14 18 15 20 14 14
14 16 17 19 19 20 21 22 24 26 27 29 34 4 7 5 11 7 10 9 8 6 4 8 12 7 5 5 4 15 15 11 9 11 14 13 5 5 5 5 10 16 14 9 11 18 15
14 16 17 19 19 20 20 21 23 25 27 28 10 8 0 11 8 8 10 5 2 3 7 6 10 2 9 10 10 13 8 6 3 3 11 10 10 13 11 9 10 12 8 8 10 13 18
14 17 18 19 18 19 20 21 22 24 27 31 7 7 8 10 6 10 6 6 2 5 7 5 6 8 11 10 8 11 9 6 6 12 11 12 9 8 8 10 14 8 13 14 13 7 12
14 16 17 18 18 18 19 20 21 22 27 13 7 6 7 8 7 2 4 5 3 4 2 5 5 7 7 7 11 11 9 7 8 11 12 9 8 14 15 4 14 12 13 2 6 13 13
12 14 15 16 17 18 18 19 19 20 14 9 7 5 4 10 4 3 3 3 3 3 2 3 4 3 4 9 5 4 5 4 7 11 10 12 8 11 17 18 14 13 16 14 13 14 18
11 13 15 16 15 16 17 18 18 19 13 8 7 4 3 2 2 7 3 3 4 3 8 6 7 4 9 10 9 7 8 2 2 10 5 7 11 14 13 5 8 12 4 10 10 11 17
11 13 15 16 16 15 16 16 18 19 15 8 2 5 5 5 4 7 4 2 7 4 5 4 6 6 7 9 11 12 9 7 8 8 8 7 14 15 14 12 7 12 15 13 13 14 15
11 12 14 14 14 14 14 14 16 18 20 7 6 6 1 8 5 7 5 2 6 2 5 5 5 10 6 11 11 14 14 12 10 4 9 7 11 12 12 13 14 10 14 13 15 13 14
10 11 13 13 13 12 13 13 13 14 13 5 3 3 6 2 5 7 3 4 4 3 6 5 8 8 10 9 11 11 12 12 13 11 11 7 10 10 13 5 8 13 16 15 17 16 12
10 11 12 13 12 12 11 10 10 10 10 8 5 7 7 9 3 7 2 3 7 7 9 9 6 9 6 9 13 15 16 15 14 14 12 12 10 11 11 11 9 4 6 6 10 16 10
10 10 11 12 12 12 11 8 9 8 10 9 4 6 6 7 7 8 6 6 5 6 9 8 7 5 9 11 11 11 13 13 14 15 14 12 10 7 5 10 9 9 6 1 7 7 4
11 10 10 11 12 12 11 9 9 5 8 9 3 5 5 6 4 8 8 2 8 6 6 6 2 3 6 9 9 8 6 3 3 5 8 12 11 9 10 3 5 6 6 4 3 7 6
11 11 11 11 12 11 10 9 3 5 6 7 1 2 4 5 7 3 5 9 4 4 6 2 0 6 4 6 4 6 9 4 6 5 6 10 11 11 10 6 9 9 3 2 9 6 7
11 11 12 11 12 12 10 10 7 6 5 7 0 2 4 4 8 7 7 7 5 5 3 6 6 5 6 5 4 4 7 2 6 7 4 8 9 8 11 7 9 4 3 6 5 1 4
11 11 12 12 11 12 11 10 9 7 5 6 3 1 3 5 7 7 8 7 10 1 5 2 5 6 4 2 4 4 6 5 8 6 5 4 3 4 3 2 2 1 4 2 5 9 10
Wind_Direction
21 16 15 12 9 6 1 359 355 348 347 341 333 331 330 330 327 323 319 313 306 300 295 287 284 286 264 229 259 118 139 160 190 207 222 215 225 226 240 245 239 245 251 263 262 255 247
17 14 13 12 7 3 1 357 352 344 339 337 334 330 329 329 325 321 316 311 303 296 284 269 260 267 245 258 78 133 179 174 182 204 213 223 229 233 259 274 256 248 256 260 240 246 239
16 17 15 11 4 3 359 355 347 341 336 336 334 331 328 325 322 321 316 311 306 291 262 229 222 229 257 255 26 178 184 193 194 211 217 226 246 260 237 262 260 258 261 256 245 238 244
18 17 14 8 4 360 357 354 349 346 339 337 336 333 329 325 323 321 318 313 308 316 212 197 200 228 267 59 323 232 204 199 206 225 256 256 242 263 255 273 270 244 245 254 231 210 223
19 14 9 3 0 360 357 353 349 345 341 337 337 335 332 328 327 328 319 308 309 111 161 174 196 232 259 143 212 210 207 203 202 207 223 284 250 240 237 249 243 223 247 226 245 180 239
15 7 7 0 352 352 351 351 349 345 341 338 337 336 334 332 328 327 300 264 34 185 193 214 275 225 226 39 76 211 201 231 189 201 215 215 221 226 233 220 236 226 214 248 237 165 219
4 360 357 356 355 353 350 348 348 343 340 337 335 336 335 332 325 322 299 198 223 186 228 324 333 308 277 263 162 181 189 211 201 203 220 206 218 221 233 227 250 275 284 294 248 231 213
3 1 358 356 355 352 350 346 343 340 339 336 334 335 334 331 322 314 278 31 32 325 297 268 206 250 189 320 257 212 165 204 210 225 220 236 231 251 239 255 242 255 260 257 262 253 218
358 355 351 351 346 352 350 344 342 339 337 336 334 334 330 330 320 285 359 22 311 296 259 145 81 346 24 248 253 224 188 223 223 229 237 236 235 230 247 241 244 241 249 249 254 215 247
346 343 340 340 339 346 349 345 339 337 336 335 334 331 330 324 302 328 40 350 328 316 260 125 167 97 214 240 224 352 260 245 231 241 241 252 239 253 250 255 240 248 236 253 266 246 240
342 341 341 339 343 347 345 343 337 335 335 333 331 329 325 330 312 349 340 337 335 227 252 69 60 337 261 323 348 154 296 240 246 246 241 251 238 244 251 251 239 246 270 224 247 255 260
342 344 344 341 347 345 344 342 336 335 333 332 330 327 328 194 234 339 323 321 244 230 101 124 315 340 309 47 18 313 240 233 256 255 260 251 268 230 260 239 254 287 263 258 242 247 242
349 343 348 346 344 343 344 342 336 333 331 331 326 322 310 306 326 323 317 254 241 280 134 80 343 323 307 315 296 312 295 226 246 228 236 235 250 216 248 260 226 238 240 239 225 226 243
345 345 342 344 342 342 342 342 335 330 329 330 324 315 189 274 311 320 286 250 259 72 35 33 303 302 286 7 293 301 281 265 201 294 282 266 235 200 177 247 261 231 233 246 251 247 260
337 342 343 342 343 341 341 339 334 329 328 329 314 257 255 353 316 296 265 247 27 26 6 326 299 251 236 223 300 299 278 289 17 341 313 290 292 187 317 268 266 252 260 281 312 276 262
334 342 344 343 342 340 340 337 334 331 328 328 313 283 186 325 312 265 256 9 1 14 318 302 292 3 314 325 317 310 311 49 331 319 329 318 281 195 160 250 225 254 307 254 238 272 272
339 346 348 346 342 339 339 335 334 335 330 318 258 271 53 331 272 247 300 51 301 77 328 310 328 298 296 310 300 301 293 82 32 316 310 296 277 248 263 221 248 192 235 231 249 214 253
347 346 347 343 341 338 337 334 335 340 335 323 284 273 26 326 246 322 1 10 23 280 218 282 286 283 290 313 289 283 283 342 29 315 292 338 309 274 230 309 324 304 287 23 294 220 234
343 340 337 338 339 337 335 334 336 341 1 319 300 304 57 294 312 25 103 226 296 270 303 290 277 241 324 288 297 224 304 40 332 299 3 352 247 265 243 210 187 248 259 255 252 265 268
333 332 334 335 337 335 335 333 335 334 342 308 283 289 126 132 91 318 1 171 247 164 282 281 292 267 274 266 233 263 281 190 219 296 30 307 279 277 290 128 223 282 258 281 280 262 260
321 328 331 327 327 333 334 332 334 328 329 294 284 57 6 324 54 327 285 327 277 246 213 248 239 251 302 294 285 279 274 303 271 217 252 255 276 277 280 290 278 284 284 278 246 260 268
314 324 327 328 332 332 328 333 331 326 330 256 318 341 347 277 302 274 142 223 309 314 273 272 252 306 286 281 287 310 318 297 301 321 267 242 265 276 286 272 267 276 275 268 262 267 270
306 315 321 321 321 326 325 334 333 332 332 304 43 218 272 198 236 267 26 358 330 318 268 300 318 308 284 324 339 315 300 294 286 279 288 290 274 275 270 332 300 266 257 256 254 245 252
296 306 315 318 319 322 324 331 330 335 343 312 4 291 272 282 222 303 336 268 282 286 294 303 258 283 346 334 300 272 256 251 249 250 238 260 278 273 278 286 262 40 24 309 285 274 237
287 299 309 314 315 321 317 321 326 314 324 294 338 284 293 281 325 283 240 269 267 234 232 268 293 357 342 284 276 256 232 227 238 228 232 214 253 272 255 263 276 284 166 252 266 196 211
280 288 300 304 309 314 319 315 303 273 307 286 356 319 287 306 29 8 288 280 295 286 237 204 152 318 281 275 253 258 280 333 208 167 208 226 213 245 275 233 248 76 59 28 341 248 64
272 280 287 295 300 304 312 319 223 242 280 292 325 336 295 282 304 310 302 337 6 294 290 205 29 252 224 267 312 267 267 319 263 252 190 194 226 223 244 254 293 114 105 5 247 65 41
262 273 282 286 291 294 295 292 231 231 260 282 224 14 297 292 299 289 283 270 270 248 263 49 265 187 248 285 260 276 292 358 282 260 231 191 184 224 216 237 245 79 154 272 59 292 318
258 269 277 281 284 286 283 274 210 207 236 279 280 58 305 264 282 289 287 276 243 304 293 204 301 288 34 295 311 315 282 275 272 260 269 230 335 287 324 256 60 195 310 78 322 321 321